Location: Quaker Farms
(41.4276°N, 73.1557°W)
Time: 21:09:33
(UTC+00:00)

S-56A Canister/Altair - Pass Details

Date: 16 June 2021
Orbit: 631 x 2501 km, 38.9° (Epoch: 30 July)

Event Time Altitude Azimuth Distance (km) Brightness Sun altitude
Rises 16:37:59 0° 275° (W) 3,894 11.1 71.7°
Reaches altitude 10° 16:40:54 10° 262° (W) 3,185 10.8 71.8°
Maximum altitude 16:47:14 25° 211° (SSW) 2,713 11.0 71.9°
Drops below altitude 10° 16:55:40 10° 162° (SSE) 4,345 11.8 71.9°
Sets 17:00:32 0° 152° (SSE) 5,642 12.2 71.9°
